Wind_Speed
10 11 12 12 12 11 11 10 10 9 9 9 8 7 6 3 3 3 5 6 7 9 9 6 6 6 8 9 6 2 4 10 7 7 7 8 3 6 7 5 4 2 6 14 18
7 9 10 11 11 11 11 11 11 10 10 10 9 8 7 6 7 6 6 3 6 7 7 11 15 15 16 14 18 12 12 7 4 5 7 8 5 3 8 9 6 3 7 14 16
4 5 5 6 7 7 7 7 7 6 6 7 7 8 10 8 9 8 8 5 5 5 12 17 14 13 11 7 10 14 9 7 4 5 8 8 7 2 5 10 7 4 4 12 15
3 4 4 4 4 4 3 3 3 3 3 3 6 8 10 12 9 12 10 8 7 11 13 13 11 11 11 10 9 10 10 3 10 7 8 3 6 2 3 8 7 6 5 8 12
3 3 3 4 3 3 3 2 2 1 1 4 6 10 11 15 12 12 11 9 9 8 10 9 10 12 14 10 10 12 11 4 11 8 7 4 3 3 2 3 5 5 5 9 9
3 3 3 3 3 2 2 2 2 2 3 4 8 11 13 14 14 13 12 10 8 7 8 7 10 13 13 10 10 14 13 1 12 10 8 5 6 5 4 2 1 2 4 8 10
2 3 3 4 3 3 2 0 2 3 4 5 8 12 13 12 14 14 13 11 9 7 7 8 7 7 5 5 8 13 9 5 9 11 13 7 6 6 4 5 3 1 5 8 10
1 2 3 4 4 5 5 5 5 5 6 7 9 12 14 11 14 13 14 14 11 8 8 9 6 4 5 5 4 5 11 10 14 8 6 6 4 2 2 3 4 5 6 9 10
1 2 2 3 4 5 5 7 9 9 8 9 10 11 12 13 15 15 15 13 13 12 10 10 8 5 4 3 6 6 5 3 9 7 7 1 2 7 1 2 5 6 5 8 11
2 2 2 2 2 3 3 4 4 7 11 13 11 8 8 10 12 13 14 14 13 15 13 11 10 7 7 1 3 4 3 2 8 9 9 7 6 11 10 3 3 6 5 9 10
2 1 2 2 2 2 2 1 1 8 10 7 7 6 7 7 8 8 10 14 16 16 15 13 9 7 7 6 6 5 4 5 7 5 9 9 8 7 8 10 7 6 7 6 8
3 2 2 2 2 1 1 2 4 13 17 16 20 19 17 12 10 7 4 8 11 14 16 14 8 8 8 7 7 9 10 10 7 6 13 11 10 6 8 5 8 7 4 4 7
5 3 2 2 2 1 1 4 15 20 19 18 17 16 15 13 15 12 8 6 7 9 10 9 8 8 6 10 8 9 11 10 10 13 9 11 11 6 7 7 8 7 9 9 8
8 7 4 3 2 2 3 15 21 20 12 13 12 8 11 12 13 15 15 11 8 7 8 6 6 5 7 6 8 6 8 13 14 12 7 8 7 10 7 7 9 6 8 7 10
10 10 7 4 3 2 5 21 22 12 3 9 5 5 10 7 15 10 8 10 11 9 7 8 3 3 4 3 3 5 8 11 14 13 14 13 8 9 5 9 12 8 7 10 10
9 10 8 6 5 4 7 24 17 4 3 7 5 6 6 10 10 10 6 4 6 6 6 6 4 4 3 1 2 7 8 8 11 13 17 18 14 15 14 10 6 6 11 12 12
8 9 9 8 7 6 10 19 9 3 12 10 10 10 8 10 11 8 6 7 4 3 5 5 5 5 2 1 1 4 5 4 5 8 14 14 13 18 12 9 10 13 13 15 14
7 8 9 9 8 9 14 19 5 7 13 14 14 10 8 10 6 5 5 4 3 2 1 4 5 3 2 5 5 1 1 1 4 4 5 4 9 8 10 11 14 14 12 15 13
7 9 10 10 10 11 16 18 6 11 13 16 13 8 8 5 3 2 1 2 3 3 2 1 2 4 9 6 5 3 3 5 5 11 7 9 12 15 14 19 20 20 17 12 14
7 8 11 12 12 12 16 12 10 14 15 15 9 8 8 4 3 3 4 3 1 3 4 3 5 8 5 5 3 6 8 3 5 4 5 6 8 11 15 19 23 24 23 18 13
6 10 11 12 12 13 14 12 15 18 15 11 9 9 6 4 2 2 5 4 3 3 6 6 3 4 7 4 6 3 6 8 8 5 4 5 7 10 13 15 19 23 25 24 17
9 13 13 11 10 12 15 18 17 16 12 9 7 6 7 4 2 1 3 3 3 5 3 0 4 5 6 3 3 12 6 5 5 5 7 7 16 19 24 28 24 22 23 22 24
12 16 13 12 7 16 16 16 18 16 12 9 7 6 5 2 1 1 3 3 4 6 4 11 3 3 4 6 12 8 6 6 6 9 14 11 10 11 13 19 26 30 29 28 28
14 13 17 13 10 13 14 14 16 16 11 9 6 5 2 2 0 3 3 4 9 11 15 14 11 12 12 6 8 14 17 15 11 13 20 31 38 33 38 38 37 32 30 35 36
16 14 19 14 13 12 12 13 13 15 13 11 8 6 5 3 2 4 6 10 13 16 6 7 10 15 17 19 21 24 23 22 22 25 25 29 37 35 33 35 32 30 29 30 31
12 13 16 13 12 12 12 12 12 11 10 10 9 7 6 5 6 7 9 11 10 11 14 16 11 13 16 16 18 24 22 25 25 27 35 35 45 36 36 33 29 30 31 32 34
7 12 14 14 13 13 12 11 11 10 10 10 9 9 7 7 7 7 9 7 11 15 15 13 8 6 8 12 10 15 23 17 19 20 26 28 31 26 31 33 33 31 31 33 37
Wind_Direction
257 263 264 267 268 271 272 271 270 268 265 263 252 247 244 201 168 148 120 76 72 107 109 84 84 54 77 77 98 152 115 116 132 151 157 152 95 27 50 53 76 190 240 189 169
263 262 263 265 268 270 271 273 272 269 263 257 248 231 223 197 182 167 151 107 76 112 110 99 92 81 95 72 53 70 132 119 127 177 170 154 137 31 31 42 34 23 152 171 171
277 273 270 271 272 273 274 274 274 266 258 243 228 213 209 190 186 172 164 137 55 169 108 95 89 94 90 59 41 57 83 159 189 151 163 163 177 121 53 24 45 51 126 163 171
292 287 282 278 277 279 278 272 267 258 244 214 198 188 189 184 182 177 171 152 112 91 102 89 75 69 58 57 72 57 40 197 203 182 177 179 167 160 78 23 34 86 121 177 169
299 295 295 289 287 286 280 264 253 226 185 168 175 176 174 179 180 178 175 167 152 132 128 93 86 65 50 80 63 54 29 45 190 211 204 222 207 217 148 69 8 53 139 174 186
319 326 323 319 317 309 298 276 240 207 178 161 165 169 170 177 180 179 179 181 174 162 155 124 93 88 71 66 52 25 39 198 199 200 238 243 267 279 234 235 357 77 178 190 192
348 357 10 15 15 30 41 100 184 180 173 165 162 165 167 170 173 180 182 194 190 188 184 163 126 99 76 37 50 36 24 87 243 204 235 246 278 276 199 213 236 270 199 212 202
21 8 20 29 47 53 62 77 103 138 156 160 160 162 173 172 177 176 188 200 196 196 204 196 202 172 74 42 64 55 67 71 67 138 254 229 22 332 163 241 210 252 220 220 207
323 347 22 32 47 62 69 80 90 99 128 141 151 158 168 175 185 187 195 207 211 200 208 210 214 199 200 32 109 65 31 124 63 42 4 38 327 354 63 183 219 217 236 222 208
299 327 348 22 46 44 63 82 96 105 114 131 143 146 161 179 190 195 200 208 208 203 204 210 212 212 222 172 151 53 11 87 6 346 319 308 318 303 281 266 219 224 218 222 219
270 305 329 341 354 34 52 65 122 141 133 143 147 136 160 193 188 198 210 212 213 208 210 209 199 204 233 231 223 299 312 327 337 328 317 340 313 288 275 255 238 231 231 224 215
256 275 294 321 321 354 54 79 158 131 119 122 116 106 102 102 144 167 177 191 199 204 209 212 206 217 225 242 255 267 284 281 296 285 321 323 309 275 269 297 282 266 250 254 205
255 265 291 301 288 269 102 137 144 130 118 122 126 120 112 117 114 111 107 114 166 185 189 191 188 210 233 254 268 266 259 275 281 277 310 308 302 260 257 278 262 248 241 240 234
253 253 261 278 243 181 163 159 146 136 118 127 132 133 136 121 127 111 98 99 123 140 169 164 192 220 244 247 261 278 249 257 272 286 278 285 294 280 269 256 270 254 258 259 256
249 246 243 247 233 201 182 170 160 156 112 146 124 112 167 171 147 141 122 98 101 116 138 134 171 166 195 211 289 278 277 272 271 282 288 270 251 266 253 261 269 268 298 310 288
250 237 224 225 219 197 174 178 177 185 143 154 152 136 131 146 158 145 162 132 120 109 138 146 152 143 125 12 332 323 309 277 270 265 255 249 246 255 259 280 320 321 305 311 300
251 234 213 213 206 188 173 176 175 206 166 161 151 155 158 142 148 139 142 163 164 152 142 144 171 186 196 330 265 311 305 261 227 216 248 238 248 243 247 268 280 293 306 301 293
245 227 213 208 198 184 176 171 182 193 166 168 158 159 162 145 124 140 141 133 106 109 181 174 188 199 269 342 338 287 58 308 269 266 300 242 245 251 231 223 254 272 281 292 281
238 215 208 205 198 182 177 184 197 175 174 169 163 169 153 145 156 183 126 132 111 85 116 332 233 226 301 297 308 222 202 247 278 285 278 247 264 252 238 258 258 255 259 271 268
230 211 202 197 193 184 183 194 185 172 162 163 175 161 140 134 176 186 188 173 157 307 323 252 292 274 266 308 213 239 236 247 218 256 246 247 268 244 239 250 245 249 248 254 259
218 189 188 183 186 186 189 187 173 166 165 163 162 152 158 147 133 157 190 197 237 309 323 321 248 252 295 267 273 214 198 211 222 233 270 285 247 228 239 272 271 262 263 265 268
191 173 178 181 174 184 186 181 176 176 173 159 150 157 148 108 81 98 196 215 297 328 327 149 284 268 273 251 222 163 145 170 226 220 249 272 265 244 264 278 288 279 271 275 266
194 193 186 189 182 176 170 171 178 182 184 176 171 166 149 89 21 168 109 336 325 327 290 309 235 286 276 205 183 190 220 265 277 273 253 258 254 234 252 266 272 284 277 281 276
188 183 188 194 184 177 172 178 186 190 201 195 198 191 206 268 49 183 302 290 293 292 300 288 252 240 247 258 237 247 262 266 264 253 261 255 277 287 293 296 295 291 279 278 274
192 194 200 203 199 184 179 179 185 193 204 210 211 234 252 238 264 269 291 283 287 298 280 287 263 265 261 259 265 268 266 266 258 259 256 272 279 287 300 298 302 303 285 274 275
198 196 201 210 198 196 193 192 195 202 212 223 236 244 240 257 268 288 298 294 291 281 295 296 273 270 271 266 262 267 268 266 266 266 268 275 280 289 293 295 296 300 299 278 274
183 197 198 208 208 211 213 206 211 217 219 223 219 227 239 255 288 311 308 287 287 288 292 282 267 256 266 288 281 268 267 263 266 264 272 271 282 287 290 288 291 289 293 288 277
Height
3162 3163 3163 3164 3164 3165 3165 3166 3167 3168 3169 3169 3170 3171 3173 3174 3175 3176 3176 3177 3176 3176 3176 3176 3177 3176 3175 3176 3176 3176 3178 3178 3179 3181 3182 3183 3185 3185 3184 3184 3184 3186 3186 3189 3189
3160 3160 3161 3162 3162 3163 3163 3164 3165 3165 3166 3167 3168 3170 3171 3173 3175 3176 3177 3176 3176 3177 3178 3178 3178 3177 3177 3178 3178 3176 3178 3179 3180 3180 3182 3183 3185 3186 3187 3185 3185 3186 3186 3188 3190
3159 3159 3160 3160 3160 3161 3162 3162 3163 3163 3164 3165 3166 3168 3169 3172 3174 3175 3177 3177 3178 3177 3178 3180 3180 3180 3180 3179 3179 3178 3178 3180 3180 3181 3183 3184 3185 3187 3187 3187 3187 3188 3188 3190 3192
3159 3158 3159 3159 3159 3160 3160 3161 3161 3162 3163 3163 3164 3166 3168 3171 3175 3175 3176 3178 3179 3180 3181 3181 3181 3181 3180 3179 3179 3179 3178 3179 3180 3182 3183 3185 3185 3187 3188 3189 3188 3188 3190 3192 3194
3159 3158 3158 3158 3158 3158 3159 3160 3160 3161 3162 3163 3163 3165 3167 3170 3173 3174 3177 3178 3180 3181 3182 3183 3183 3182 3181 3181 3180 3180 3180 3179 3181 3182 3183 3185 3187 3188 3189 3189 3189 3189 3191 3193 3195
3158 3158 3158 3158 3158 3158 3158 3158 3159 3160 3161 3162 3163 3164 3167 3170 3172 3174 3177 3179 3181 3182 3182 3183 3184 3184 3183 3183 3183 3182 3180 3180 3180 3183 3185 3186 3188 3189 3189 3190 3190 3191 3192 3194 3196
3158 3158 3158 3158 3158 3157 3158 3157 3158 3158 3160 3161 3162 3164 3167 3171 3172 3175 3178 3180 3181 3182 3183 3185 3186 3186 3186 3185 3185 3183 3182 3182 3181 3184 3186 3188 3190 3189 3189 3190 3192 3192 3193 3195 3196
3158 3158 3158 3158 3158 3158 3157 3157 3157 3158 3159 3160 3162 3165 3167 3170 3172 3175 3177 3179 3181 3182 3184 3186 3187 3187 3187 3187 3186 3185 3184 3183 3182 3186 3187 3190 3190 3189 3190 3190 3192 3193 3193 3195 3196
3158 3158 3158 3158 3158 3158 3158 3158 3158 3158 3159 3161 3163 3165 3168 3170 3172 3174 3176 3178 3180 3182 3183 3184 3186 3187 3188 3188 3189 3187 3186 3186 3186 3187 3188 3189 3188 3189 3189 3190 3191 3193 3193 3195 3196
3158 3158 3158 3158 3158 3158 3158 3158 3158 3159 3160 3162 3164 3168 3168 3170 3172 3173 3175 3177 3178 3180 3183 3184 3186 3187 3188 3188 3189 3189 3189 3187 3187 3187 3186 3187 3188 3188 3189 3190 3191 3192 3193 3194 3196
3158 3158 3158 3158 3158 3158 3158 3158 3161 3161 3160 3162 3164 3165 3167 3168 3170 3172 3173 3175 3176 3179 3181 3183 3186 3187 3187 3188 3189 3189 3190 3188 3188 3187 3186 3186 3185 3186 3186 3187 3190 3191 3192 3194 3196
3157 3157 3158 3158 3157 3157 3157 3158 3158 3160 3161 3162 3164 3165 3166 3167 3169 3171 3173 3174 3175 3177 3180 3184 3185 3185 3186 3187 3189 3189 3188 3188 3188 3187 3187 3185 3184 3184 3184 3185 3188 3190 3191 3193 3194
3155 3156 3157 3157 3157 3157 3157 3158 3158 3159 3162 3165 3165 3167 3168 3170 3169 3170 3172 3172 3174 3176 3179 3182 3184 3184 3185 3186 3187 3187 3188 3187 3188 3186 3186 3185 3183 3183 3184 3184 3185 3186 3189 3190 3192
3153 3154 3155 3156 3158 3156 3157 3158 3159 3160 3163 3167 3167 3168 3169 3169 3172 3172 3172 3174 3174 3176 3178 3181 3182 3182 3183 3184 3184 3186 3186 3186 3185 3185 3185 3184 3183 3181 3183 3183 3183 3184 3185 3187 3189
3150 3151 3152 3154 3155 3156 3157 3157 3159 3161 3163 3168 3167 3167 3168 3170 3172 3173 3174 3175 3175 3176 3178 3180 3180 3181 3181 3182 3182 3183 3182 3183 3182 3182 3182 3182 3183 3179 3180 3181 3182 3183 3184 3184 3185
3148 3148 3150 3151 3152 3154 3155 3157 3160 3164 3163 3165 3166 3166 3168 3169 3171 3173 3175 3176 3177 3177 3177 3178 3179 3180 3181 3181 3181 3181 3180 3180 3179 3180 3176 3178 3179 3175 3178 3179 3180 3180 3181 3181 3182
3145 3146 3147 3149 3151 3151 3153 3157 3162 3161 3163 3165 3165 3166 3168 3169 3171 3173 3174 3175 3177 3179 3178 3178 3178 3179 3180 3180 3179 3179 3179 3177 3175 3174 3168 3172 3172 3172 3175 3177 3177 3176 3176 3176 3177
3142 3143 3145 3146 3148 3149 3152 3157 3158 3158 3160 3162 3164 3166 3168 3169 3171 3172 3173 3174 3175 3176 3176 3177 3179 3177 3177 3178 3177 3177 3177 3177 3173 3168 3167 3169 3164 3166 3171 3171 3169 3170 3171 3170 3170
3139 3140 3142 3144 3146 3148 3152 3154 3154 3156 3159 3161 3164 3166 3167 3168 3171 3171 3171 3173 3174 3174 3176 3175 3175 3175 3175 3174 3176 3175 3176 3176 3175 3173 3171 3164 3161 3164 3166 3163 3163 3165 3165 3165 3165
3136 3138 3140 3141 3144 3146 3149 3151 3153 3155 3157 3160 3162 3164 3166 3168 3169 3169 3170 3172 3172 3172 3172 3173 3174 3172 3172 3172 3172 3172 3173 3174 3173 3170 3166 3159 3159 3158 3157 3156 3157 3158 3159 3160 3159
3134 3135 3137 3139 3142 3144 3146 3149 3151 3153 3157 3159 3160 3162 3164 3165 3166 3166 3168 3169 3169 3170 3170 3169 3170 3171 3169 3169 3168 3168 3168 3169 3170 3169 3164 3159 3153 3153 3151 3152 3151 3151 3152 3153 3153
3132 3135 3136 3138 3142 3142 3144 3146 3149 3152 3155 3157 3159 3161 3162 3163 3164 3165 3166 3167 3167 3167 3167 3167 3167 3167 3167 3165 3164 3164 3165 3165 3166 3167 3165 3162 3148 3150 3149 3148 3148 3147 3145 3146 3146
3130 3133 3135 3137 3139 3141 3142 3145 3147 3150 3153 3155 3157 3159 3160 3162 3163 3162 3163 3164 3165 3165 3165 3165 3165 3166 3164 3166 3164 3163 3162 3163 3163 3163 3160 3159 3144 3143 3145 3144 3145 3143 3140 3140 3140
3129 3131 3133 3135 3138 3140 3141 3143 3146 3149 3151 3153 3155 3157 3158 3159 3160 3161 3161 3161 3161 3161 3161 3159 3160 3161 3160 3160 3160 3160 3159 3158 3159 3158 3154 3144 3138 3141 3140 3137 3137 3137 3137 3134 3133
3126 3128 3129 3132 3136 3138 3141 3143 3144 3147 3149 3151 3153 3155 3156 3156 3157 3158 3158 3158 3157 3156 3156 3156 3155 3154 3154 3154 3153 3151 3152 3152 3151 3150 3147 3141 3132 3135 3135 3131 3130 3129 3128 3127 3126
3124 3126 3128 3130 3133 3136 3138 3141 3143 3145 3147 3149 3150 3151 3153 3154 3155 3155 3155 3154 3154 3153 3152 3150 3149 3148 3147 3147 3146 3144 3144 3143 3142 3141 3136 3135 3124 3130 3127 3124 3124 3123 3120 3118 3118
3122 3124 3126 3128 3130 3134 3136 3138 3140 3142 3144 3146 3147 3149 3150 3151 3151 3151 3150 3150 3150 3149 3147 3147 3146 3145 3144 3142 3141 3139 3134 3135 3134 3134 3131 3128 3124 3124 3121 3118 3117 3117 3115 3111 3109